Tracking 20623 objects as of 4-Apr-2020
HD Live streaming from Space Station
objects crossing your sky now

CRYOCUBE

Track CRYOCUBE now!
10-day predictions
CRYOCUBE is classified as:


NORAD ID: 45258
Int'l Code: 1998-067RB
Perigee: 418.4 km
Apogee: 428.0 km
Inclination: 51.6 °
Period: 92.9 minutes
Semi major axis: 6794 km
RCS: Unknown
Launch date: November 20, 1998
Source: United States (US)
Launch site: TYURATAM MISSILE AND SPACE COMPLEX (TTMTR)

Uplink (MHz): 2082.004
Downlink (MHz): 2261.000
Beacon (MHz):
Mode:
Call sign:
Status: Unknown

aabbcc
Your satellite tracking list
Your tracking list is empty




NASA's NSSDC Master Catalog

Two Line Element Set (TLE):
1 45258U 98067RB  20094.81313353 +.00004791 +00000-0 +91158-4 0  9995
2 45258 051.6430 356.1959 0007017 070.4142 289.7604 15.50224089006891
Source of the keplerian elements: AFSPC